Home > Weather > Glendale > Past weeks

Flag for U.S.A. Weather for the Past 2 Weeks in Glendale, Arizona, U.S.A.

Now
62 °F

Clear.


Feels Like: 62 °F
Forecast: 50 / 83 °F
Wind: 6 mph from Northeast

Location: Phoenix-Deer Valley Municipal Airport

Current Time: Feb 12, 2016 at 1:32:06 AM

Latest Report: Feb 12, 2016 at 12:53 AM


Visibility: 10 mi

Pressure: 30.08 "Hg

Humidity: 29%

Dew point: 29 °F

Location of GlendaleLocation

Historic Weather in Glendale — Graph

°F

Glendale Temperature Yesterday

Maximum temperature yesterday: 79 °F (at 3:53 PM)
Minimum temperature yesterday: 50 °F (at 4:53 AM)
Average temperature yesterday: 64 °F

High & Low Weather Summary for the Past Weeks

 TemperatureHumidityPressure
High83 °F (Feb 9, 4:53 PM)90% (Jan 31, 10:53 PM)30.36 "Hg (Jan 31, 10:53 PM)
Low33 °F (Feb 3, 4:53 AM)10% (Feb 6, 2:53 PM)29.52 "Hg (Jan 31, 8:53 PM)
Average56 °F31%30.09 "Hg
* Reported Jan 27 11:53 PM — Feb 11 11:53 PM, Glendale, Weather by CustomWeather, © 2016

Note: Actual official high and low records may vary slightly from our data, if they occured in-between our weather recording intervals... More about our weather records

Advertising

Glendale Weather History for the Previous 24 Hours

 ConditionsComfort  
Time TempWeatherWind HumidityBarometerVisibility
11:53 PM
Thu, Feb 11
58 °FClear.No wind36%30.09 "Hg10 mi
10:53 PM62 °FClear.13 mph31%30.09 "Hg10 mi
9:53 PM64 °FClear.9 mph30%30.09 "Hg10 mi
8:53 PM66 °FClear.9 mph27%30.09 "Hg10 mi
7:53 PM64 °FClear.3 mph29%30.09 "Hg10 mi
6:53 PM71 °FClear.No wind22%30.07 "Hg10 mi
5:53 PM77 °FSunny.5 mph16%30.06 "Hg10 mi
4:53 PM79 °FSunny.No wind15%30.05 "Hg10 mi
3:53 PM79 °FSunny.3 mph15%30.04 "Hg10 mi
1:53 PM77 °FSunny.N/A17%30.06 "Hg10 mi
12:53 PM75 °FSunny.5 mph19%30.09 "Hg10 mi
11:53 AM71 °FSunny.5 mph22%30.12 "Hg10 mi
10:53 AM67 °FSunny.5 mph27%30.14 "Hg10 mi
9:53 AM64 °FSunny.No wind29%30.14 "Hg10 mi
8:53 AM59 °FSunny.No wind35%30.14 "Hg10 mi
7:53 AM54 °FSunny.6 mph40%30.13 "Hg10 mi
6:53 AM51 °FClear.No wind44%30.12 "Hg10 mi
5:53 AM50 °FClear.No wind48%30.10 "Hg10 mi
4:53 AM50 °FClear.3 mph48%30.09 "Hg10 mi
3:53 AM56 °FClear.No wind37%30.08 "Hg10 mi
2:53 AM60 °FClear.7 mph31%30.06 "Hg10 mi
1:53 AM59 °FClear.5 mph32%30.07 "Hg10 mi
Weather by CustomWeather, © 2016

See weather overviewHow to use our weather pages